Location: Montreal
(45.5000°N, 73.5800°W)
Time: 16:05:48
(UTC-04:00)

ISS - Visible Passes

Search period start: 25 March 2023 00:00
Search period end: 04 April 2023 00:00
Orbit: 414 x 422 km, 51.6° (Epoch: 25 March)

Date Brightness Start Highest point End Pass type
(mag) Time Alt. Az. Time Alt. Az. Time Alt. Az.
25 Mar -2.3 20:44:18 10° NW 20:47:18 30° N 20:48:27 24° NE visible
25 Mar -0.4 22:21:02 10° WNW 22:21:23 12° WNW 22:21:23 12° WNW visible
26 Mar -2.2 19:56:13 10° WNW 19:59:09 27° N 20:02:06 10° ENE visible
26 Mar -2.3 21:33:03 10° WNW 21:35:18 36° NW 21:35:18 36° NW visible
27 Mar -3.0 20:45:02 10° NW 20:48:15 42° NNE 20:49:11 33° ENE visible
27 Mar -0.4 22:21:51 10° WNW 22:22:07 12° WNW 22:22:07 12° WNW visible
28 Mar -2.6 19:56:56 10° NW 20:00:02 34° NNE 20:03:02 11° E visible
28 Mar -2.5 21:33:39 10° WNW 21:35:58 39° W 21:35:58 39° W visible
29 Mar -3.8 20:45:29 10° WNW 20:48:51 81° NNE 20:49:48 43° ESE visible
30 Mar -3.4 19:57:18 10° WNW 20:00:36 56° NNE 20:03:38 12° ESE visible
30 Mar -1.9 21:34:20 10° W 21:36:34 25° WSW 21:36:34 25° WSW visible
31 Mar -2.9 20:45:51 10° WNW 20:49:02 42° SW 20:50:24 27° SSE visible
01 Apr -3.6 19:57:27 10° WNW 20:00:47 69° SSW 20:04:06 10° SE visible
01 Apr -0.9 21:36:13 10° WSW 21:36:59 11° SW 21:37:12 11° SW visible
02 Apr -1.4 20:46:31 10° W 20:48:50 17° SW 20:51:05 10° S visible
03 Apr -2.0 19:57:40 10° W 20:00:35 28° SW 20:03:29 10° SSE visible
